Weather History for Houlton, ME

Change the Weather History Date:

Friday, February 3, 2012

  Actual Average Record
Temperature  
Mean Temperature 5 °F 12 °F  
Max Temperature 23 °F 23 °F 52 °F (1970)
Min Temperature -13 °F 1 °F -30 °F (1971)
Degree Days  
Heating Degree Days 60 53  
Month to date heating degree days 162 159  
Since 1 July heating degree days 4589 5334  
Cooling Degree Days 0 0  
Month to date cooling degree days 0 0  
Year to date cooling degree days 0 0  
Moisture  
Dew Point -2 °F    
Average Humidity 76    
Maximum Humidity 95    
Minimum Humidity 56    
Precipitation  
Precipitation 0.00 in 0.08 in 1.64 in (1968)
Month to date precipitation 0.35 0.23  
Year to date precipitation 2.31 3.09  
Sea Level Pressure  
Sea Level Pressure 30.22 in    
Wind  
Wind Speed 3 mph (NNW)    
Max Wind Speed 15 mph    
Max Gust Speed 21 mph    
Visibility 10 miles    
Events      
T = Trace of Precipitation, MM = Missing Value Source: NWS Daily Summary

Daily Weather History Graph

Daily Weather History Graph

Search for Another Location

Airport:

Trip Planner

Search our weather history database for the weather conditions in past years. The results will help you decide how hot, cold, wet, or windy it might be!

Date:

Astronomy

Feb. 03, 2012 Rise Set
Actual Time 6:51 AM EST 4:38 PM EST
Civil Twilight 6:20 AM EST 5:10 PM EST
Nautical Twilight 5:44 AM EST 5:46 PM EST
Astronomical Twilight 5:09 AM EST 6:21 PM EST
Moon 12:29 PM EST (2/3) 3:32 AM EST (2/3)
Length of Visible Light 10h 50m
Length of Day
9h 46m
Waxing Gibbous, 81% of the Moon is Illuminated
Feb 3
Waxing Gibbous
Feb 7
Full
Feb 14
Last Quarter
Feb 21
New
Feb 29
First Quarter

Hourly Weather History & Observations

Time (EST) Temp. Windchill Dew Point Humidity Pressure Visibility Wind Dir Wind Speed Gust Speed Precip Events Conditions
12:53 AM -2.0 °F -10.1 °F -7.1 °F 79% 30.20 in 10.0 mi NNE 3.5 mph - N/A   Clear
1:53 AM -6.0 °F - -11.0 °F 79% 30.22 in 10.0 mi Calm Calm - N/A   Clear
3:53 AM -8.0 °F - -15.0 °F 71% 30.23 in 10.0 mi Calm Calm - N/A   Clear
4:53 AM -9.9 °F - -14.1 °F 82% 30.25 in 10.0 mi Calm Calm - N/A   Clear
5:53 AM -11.9 °F - -16.1 °F 82% 30.27 in 10.0 mi Calm Calm - N/A   Clear
6:53 AM -9.9 °F - -16.1 °F 74% 30.28 in 10.0 mi Calm Calm - N/A   Clear
7:53 AM -9.9 °F - -14.1 °F 82% 30.28 in 10.0 mi Calm Calm - N/A   Clear
8:53 AM 1.9 °F - -0.9 °F 88% 30.27 in 10.0 mi Calm Calm - N/A   Clear
9:53 AM 12.9 °F 6.9 °F 7.0 °F 77% 30.27 in 10.0 mi North 3.5 mph - N/A   Clear
10:53 AM 19.0 °F 8.2 °F 7.0 °F 59% 30.25 in 10.0 mi NNW 9.2 mph - N/A   Clear
11:53 AM 19.0 °F 6.8 °F 7.0 °F 59% 30.23 in 10.0 mi NW 11.5 mph - N/A   Clear
12:53 PM 19.9 °F 6.2 °F 7.0 °F 57% 30.22 in 10.0 mi NNW 15.0 mph 20.7 mph N/A   Clear
1:53 PM 21.9 °F 11.7 °F 9.0 °F 58% 30.21 in 10.0 mi NNW 9.2 mph - N/A   Clear
2:53 PM 23.0 °F 13.1 °F 10.0 °F 58% 30.21 in 10.0 mi North 9.2 mph - N/A   Clear
3:53 PM 21.9 °F 12.5 °F 9.0 °F 58% 30.21 in 10.0 mi NNW 8.1 mph - N/A   Clear
4:53 PM 16.0 °F - 8.1 °F 71% 30.22 in 10.0 mi Calm Calm - N/A   Scattered Clouds
5:53 PM 8.1 °F - 3.9 °F 83% 30.22 in 10.0 mi Calm Calm - N/A   Clear
6:53 PM 5.0 °F - 1.9 °F 87% 30.20 in 10.0 mi Calm Calm - N/A   Clear
7:53 PM 1.0 °F - -2.0 °F 87% 30.20 in 10.0 mi Calm Calm - N/A   Clear
8:53 PM 1.0 °F - -4.0 °F 79% 30.20 in 10.0 mi Calm Calm - N/A   Mostly Cloudy
9:53 PM 5.0 °F - -0.9 °F 76% 30.18 in 10.0 mi Calm Calm - N/A   Overcast
10:53 PM 7.0 °F - 1.9 °F 80% 30.16 in 10.0 mi Calm Calm - N/A   Overcast
11:53 PM 12.0 °F - 8.1 °F 84% 30.15 in 10.0 mi Calm Calm - N/A   Overcast